TimeMDT,TemperatureF,Dew PointF,Humidity,Sea Level PressureIn,VisibilityMPH,Wind Direction,Wind SpeedMPH,Gust SpeedMPH,PrecipitationIn,Events,Conditions,WindDirDegrees,DateUTC
12:53 AM,36.0,24.1,62,29.92,10.0,West,4.6,-,N/A,,Clear,270,2013-10-01 06:53:00
1:53 AM,37.0,24.1,59,29.91,10.0,West,6.9,-,N/A,,Clear,280,2013-10-01 07:53:00
2:53 AM,33.1,24.1,70,29.93,10.0,West,5.8,-,N/A,,Clear,260,2013-10-01 08:53:00
3:53 AM,34.0,24.1,67,29.91,10.0,West,8.1,-,N/A,,Clear,270,2013-10-01 09:53:00
4:53 AM,34.0,23.0,64,29.90,10.0,West,8.1,-,N/A,,Clear,260,2013-10-01 10:53:00
5:53 AM,32.0,21.9,66,29.94,10.0,West,4.6,-,N/A,,Clear,270,2013-10-01 11:53:00
6:53 AM,32.0,23.0,69,29.97,10.0,West,9.2,-,N/A,,Clear,260,2013-10-01 12:53:00
7:53 AM,34.0,24.1,67,30.00,10.0,West,4.6,-,N/A,,Clear,260,2013-10-01 13:53:00
8:53 AM,46.9,27.0,46,29.96,10.0,West,6.9,-,N/A,,Clear,270,2013-10-01 14:53:00
9:53 AM,57.0,27.0,32,29.95,10.0,Calm,Calm,-,N/A,,Clear,0,2013-10-01 15:53:00
10:53 AM,62.1,23.0,22,29.94,10.0,SSE,4.6,-,N/A,,Clear,160,2013-10-01 16:53:00
11:53 AM,62.1,21.9,21,29.95,10.0,SE,10.4,-,N/A,,Clear,130,2013-10-01 17:53:00
12:53 PM,64.0,24.1,22,29.94,10.0,SE,12.7,-,N/A,,Clear,140,2013-10-01 18:53:00
1:53 PM,66.0,21.9,19,29.90,10.0,SE,12.7,-,N/A,,Clear,130,2013-10-01 19:53:00
2:53 PM,68.0,21.9,17,29.88,10.0,East,8.1,16.1,N/A,,Clear,100,2013-10-01 20:53:00
3:53 PM,68.0,24.1,19,29.88,10.0,SSW,12.7,-,N/A,,Clear,210,2013-10-01 21:53:00
4:53 PM,66.9,21.9,18,29.88,10.0,SW,10.4,-,N/A,,Clear,230,2013-10-01 22:53:00
5:53 PM,64.9,21.9,19,29.90,10.0,WSW,12.7,-,N/A,,Clear,240,2013-10-01 23:53:00
6:53 PM,60.1,23.0,24,29.93,10.0,SW,9.2,-,N/A,,Clear,230,2013-10-02 00:53:00
7:53 PM,55.0,23.0,29,29.94,10.0,SSW,12.7,-,N/A,,Clear,210,2013-10-02 01:53:00
8:53 PM,45.0,27.0,49,29.95,10.0,Calm,Calm,-,N/A,,Clear,0,2013-10-02 02:53:00
9:53 PM,41.0,27.0,57,29.94,10.0,West,3.5,-,N/A,,Clear,260,2013-10-02 03:53:00
10:53 PM,39.0,28.0,65,29.92,10.0,Calm,Calm,-,N/A,,Clear,0,2013-10-02 04:53:00
11:53 PM,37.0,26.1,65,29.93,10.0,West,3.5,-,N/A,,Clear,280,2013-10-02 05:53:00